STARLINK-27 (44241 NORAD) Tracking and Keplerian Element Data

This shows tracking and keplerian element data for the satellite.

Feedback or suggestion? Click here.




ElementValue
Catalog44241
NameSTARLINK-27
Epoch Orbit7484
Epoch Day268.8927987
Epoch Year2020
RAAN68.8668
Inclination53.0053
Eccentricity0.0009911
Argument of Perigee304.9925
Mean Anonmoly56.8724
Mean Motion16.16602364
Decay Rate0.03624939
L11 44241U 19029G 20268.89279870 .03624939 33553-1 32031-2 0 9991
L22 44241 53.0053 68.8668 0009911 304.9925 56.8724 16.16602364 74847



Live tracking and technical data element details for STARLINK-27 (NORAD 44241). STARLINK-27 can be tracked NOW for your location showing map with azimuth and elevation plus other details from your city location.







IsCatalogInMostPopularTable: catalog: 44241, numindb: 286
Update: records affected: 1



GetName: 44241 STARLINK-27

Hit Count: updated at: Fri, 16 May 2025 10:59:57 GMT